Volver al catálogo

SIRIUS 3

ActivoComunicacionesMEO
NORAD 26626·PAYLOAD·🇺🇸 United States

Lanzado Nov 30, 2000 desde Baikonur Cosmodrome

Loading…

Próximos Pases (próximas 24 horas)

TLE

ActualizadoSource: Space-Track

Época: Sep 12, 2026, 11:01 UTC

1 26626U 00077A   26255.45957547 -.00000001  00000-0  00000-0 0  9994
2 26626  59.6164 274.9224 0014171 271.0949  88.7822  1.58823501115882

Sigue SIRIUS 3 en tiempo real con AllMySat

Download on the App Store